AirNav   ATP
 
 1006 users online  

2CN4 Wonderful Pistachios & Almonds Airport
Lost Hills, California, USA

GOING TO LOST HILLS?


FAA INFORMATION EFFECTIVE 19 JULY 2018

Location

FAA Identifier: 2CN4
Lat/Long: 35-39-59.0000N / 119-53-47.0000W
35-39.983333N / 119-53.783333W
35.6663889 / -119.8963889
(estimated)
Elevation: 617 ft. / 188 m (estimated)
From city: 10 miles NW of LOST HILLS, CA
Time zone: UTC -7 (UTC -8 during Standard Time)
Zip code: 93249

Airport Operations

Airport use: Private use. Permission required prior to landing
Activation date: 06/2007
Control tower: no
ARTCC: LOS ANGELES CENTER
FSS: RIVERSIDE FLIGHT SERVICE STATION
Attendance: UNATNDD
Wind indicator: yes
Segmented circle: no
Lights: DUSK-2200

Nearby radio navigation aids

VOR radial/distance  VOR name  Freq  Var
AVEr058/4.2AVENAL VOR/DME117.1016E
FLWr341/34.4FELLOWS VOR/DME117.5016E
PRBr075/35.6PASO ROBLES VORTAC114.3016E

 
NDB name  Hdg/Dist  Freq  Var  ID
SALYER FARMS201/29.820516ECOR -.-. --- .-.

Airport Services

Runway Information

Runway 16/34

Dimensions: 5002 x 60 ft. / 1525 x 18 m
Surface: asphalt
Runway edge lights: low intensity
RUNWAY 16  RUNWAY 34
Traffic pattern: leftleft
Visual slope indicator: 2-box VASI on left2-box VASI on left

Airport Ownership and Management from official FAA records

Ownership: Privately-owned
Owner: WONDERFUL PISTACHIOS & ALMONDS
13646 HWY 33
LOST HILLS, CA 93249
Phone 661-797-6505
Manager: DANIEL LEE
13646 HWY 33
LOST HILLS, CA 93249
Phone 661-797-6505

Additional Remarks

30 FT PLINE ONE HALF NM E OF RY.

Instrument Procedures

There are no published instrument procedures at 2CN4.

Some nearby airports with instrument procedures:

KDLO - Delano Municipal Airport (32 nm E)
KPRB - Paso Robles Municipal Airport (36 nm W)
KMIT - Shafter Airport-Minter Field (36 nm E)
KNLC - Lemoore Naval Air Station (Reeves Field) (40 nm N)
KTLR - Mefford Field Airport (40 nm NE)
 
Loc | Ops | Rwys | IFR | FBO | Links
Com | Nav | Svcs | Stats | Notes


 
Area around 2CN4 (Wonderful Pistachios & Almonds Airport)
 
Road maps at: MapQuest Bing Google
 
Aerial photo
No photo
 
Sectional chart

 
Airport distance calculator
Flying to Wonderful Pistachios & Almonds Airport? Find the distance to fly.

From to 2CN4

Sunrise and sunset
Times for 14-Aug-2018
 Local
(UTC-7)
 Zulu
(UTC)
Morning civil twilight05:5212:52
Sunrise06:1913:19
Sunset19:5002:50
Evening civil twilight20:1703:17

Current date and time
Zulu (UTC)  15-Aug-2018 02:33:03
Local (UTC-7)  14-Aug-2018 19:33:03
 
METAR
2CN4 SuperAWOS
150155Z AUTO 00000KT 10SM 32/14 A2982
TAF
KPRB 
36nm W 
141742Z 1418/1518 00000KT P6SM SKC FM141900 21007KT P6SM SKC FM142200 21015KT P6SM SKC FM150400 21007KT P6SM SKC FM150800 VRB05KT P6SM SKC FM151200 VRB03KT 3SM BR SCT005
KNLC 
39nm N 
1501/1523 34011KT 9999 FEW200 QNH2972NS FM150600 30007KT 9999 SKC QNH2974INS T18/1513Z T38/1523Z AMD 0155 FS30012
KBFL 
44nm E 
141720Z 1418/1518 33007KT P6SM FEW200
KSBP 
44nm SW 
142302Z 1423/1518 12011KT P6SM SKC FM150100 30008KT P6SM SKC FM150400 VRB03KT P6SM SKC FM150600 VRB03KT P6SM BKN006 FM151600 24005KT P6SM SCT006
NOTAMs
Click for the latest NOTAMs
NOTAMs are issued by the DoD/FAA and will open in a separate window not controlled by AirNav.

 

 
 

Would you like to see your business listed on this page?

 If your business provides an interesting product or service to pilots, flight crews, aircraft, or users of the Wonderful Pistachios & Almonds Airport, you should consider listing it here.  To start the listing process, click on the button below
 
Add a business
 

Other Pages about Wonderful Pistachios & Almonds Airport

Update a link
 
Copyright © AirNav, LLC. All rights reserved. Privacy Policy  Contact